CW1768 Weather Reports


Display with metric or nautical units.
time (UTC)temp
F
wind
direction
speed
MPH
gust
MPH
rain 1hr
in
rain 24hr
in
rain mn
in
humidity
%
barometer
mb
20260504225019 67 248 2.0 4.0 0.00 0.00 0.00 25 1005.3
20260504224019 68 225 2.0 6.0 0.00 0.00 0.00 23 1005.1
20260504223018 68 225 3.0 9.0 0.00 0.00 0.00 24 1005.2
20260504222019 68 225 3.0 9.0 0.00 0.00 0.00 23 1005.2
20260504221019 69 248 3.0 9.0 0.00 0.00 0.00 22 1005.3
20260504220019 69 248 2.0 8.0 0.00 0.00 0.00 23 1005.1
20260504215139 69 248 3.0 8.0 0.00 0.00 0.00 22 1005.3
20260504214019 69 225 3.0 11.0 0.00 0.00 0.00 21 1005.4
20260504213019 70 225 3.0 8.0 0.00 0.00 0.00 21 1005.2
20260504212019 70 248 3.0 9.0 0.00 0.00 0.00 22 1005.3
20260504211019 70 248 3.0 11.0 0.00 0.00 0.00 22 1005.2
20260504210018 69 225 2.0 8.0 0.00 0.00 0.00 23 1005.3
20260504205019 69 225 4.0 10.0 0.00 0.00 0.00 22 1005.2
20260504204019 69 203 3.0 9.0 0.00 0.00 0.00 23 1005.2
20260504203018 69 225 3.0 12.0 0.00 0.00 0.00 23 1005.2
20260504202019 69 225 3.0 10.0 0.00 0.00 0.00 23 1005.2
20260504201018 69 270 3.0 9.0 0.00 0.00 0.00 24 1005.4
20260504200019 68 225 2.0 8.0 0.00 0.00 0.00 25 1005.3
20260504195019 68 225 3.0 10.0 0.00 0.00 0.00 24 1005.3
20260504194018 68 225 5.0 13.0 0.00 0.00 0.00 23 1005.4
20260504193018 68 225 3.0 8.0 0.00 0.00 0.00 25 1005.4
20260504192019 68 203 3.0 9.0 0.00 0.00 0.00 26 1005.4
20260504191019 68 225 3.0 9.0 0.00 0.00 0.00 26 1005.4
20260504190018 68 248 3.0 9.0 0.00 0.00 0.00 27 1005.5
20260504185019 67 225 4.0 12.0 0.00 0.00 0.00 26 1005.5
20260504184018 66 248 4.0 11.0 0.00 0.00 0.00 28 1005.6
20260504183018 65 225 4.0 16.0 0.00 0.00 0.00 28 1005.6
20260504182038 65 225 3.0 9.0 0.00 0.00 0.00 28 1005.7
20260504181018 65 225 3.0 10.0 0.00 0.00 0.00 26 1005.6
20260504180019 65 248 3.0 8.0 0.00 0.00 0.00 26 1005.5
20260504175038 66 225 4.0 9.0 0.00 0.00 0.00 25 1005.6
20260504174019 66 248 4.0 9.0 0.00 0.00 0.00 24 1005.5
20260504173019 65 225 4.0 13.0 0.00 0.00 0.00 26 1005.6
20260504172018 65 225 5.0 14.0 0.00 0.00 0.00 26 1005.6
20260504171019 66 248 5.0 14.0 0.00 0.00 0.00 25 1005.7
20260504151038 61 203 6.0 13.0 0.00 0.00 0.00 31 1006.5
20260504141120 57 203 6.0 12.0 0.00 0.00 0.00 37 1007.2
20260504081020 37 0.0 0.0 0.00 0.00 0.00 65 1008.3
20260504050019 33 113 1.0 2.0 0.00 0.00 0.00 68 1007.9
20260504045020 33 23 1.0 4.0 0.00 0.00 0.00 68 1007.9
20260504044019 33 23 1.0 3.0 0.00 0.00 0.00 68 1007.8
20260504043019 33 0.0 2.0 0.00 0.00 0.00 68 1007.8
20260504042019 32 0.0 1.0 0.00 0.00 0.00 68 1007.7
20260504041019 33 0.0 3.0 0.00 0.00 0.00 67 1007.6
20260504040019 33 0.0 2.0 0.00 0.00 0.00 67 1007.5
20260504035019 33 23 1.0 3.0 0.00 0.00 0.00 67 1007.6
20260504034019 33 23 2.0 4.0 0.00 0.00 0.00 67 1007.6
20260504033019 33 23 2.0 3.0 0.00 0.00 0.00 67 1007.6
20260504032020 33 23 1.0 3.0 0.00 0.00 0.00 66 1007.6
20260504031019 34 23 2.0 3.0 0.00 0.00 0.00 65 1007.5
20260504030059 34 23 1.0 2.0 0.00 0.00 0.00 65 1007.4
20260504025019 34 0.0 2.0 0.00 0.00 0.00 64 1007.5
20260504024019 35 23 1.0 3.0 0.00 0.00 0.00 64 1007.5
20260504023019 35 23 1.0 3.0 0.00 0.00 0.00 63 1007.6
20260504022019 36 23 1.0 3.0 0.00 0.00 0.00 64 1007.6
20260504021019 36 0.0 2.0 0.00 0.00 0.00 63 1007.5
20260504020019 37 23 1.0 3.0 0.00 0.00 0.00 63 1007.5
20260504015039 37 0.0 1.0 0.00 0.00 0.00 61 1007.5
20260504014019 38 0.0 2.0 0.00 0.00 0.00 61 1007.6
20260504013019 38 23 1.0 3.0 0.00 0.00 0.00 60 1007.5
20260504012019 39 23 1.0 3.0 0.00 0.01 0.00 58 1007.4
20260504011019 41 0.0 1.0 0.00 0.01 0.00 55 1007.5
20260504010018 41 0.0 0.0 0.00 0.02 0.00 54 1007.4
20260504005019 42 0.0 2.0 0.00 0.02 0.00 51 1007.3
20260504004019 44 0.0 2.0 0.00 0.02 0.00 46 1007.2
20260504003019 44 0.0 2.0 0.00 0.02 0.00 44 1007.1
20260504002019 44 0 1.0 3.0 0.00 0.02 0.00 43 1007.0
20260504001018 45 270 1.0 9.0 0.00 0.02 0.00 42 1006.9
20260504000019 45 293 1.0 4.0 0.00 0.02 0.00 42 1006.7
20260503235039 46 270 1.0 6.0 0.00 0.03 0.00 42 1006.6
20260503234019 46 293 2.0 7.0 0.00 0.03 0.00 40 1006.5
20260503233019 46 338 2.0 9.0 0.00 0.03 0.00 39 1006.3
20260503232018 47 270 2.0 7.0 0.00 0.04 0.00 37 1006.1
20260503231019 47 248 1.0 5.0 0.00 0.04 0.00 38 1006.1
20260503230019 47 0 3.0 10.0 0.00 0.04 0.00 37 1006.2